Retour au catalogue

STARLINK-34374

ActifCommunicationsVLEO
NORAD 64308·PAYLOAD·🇺🇸 United States

Lancé Jun 8, 2025 depuis Vandenberg Space Force Base

Loading…

Prochains Passages (prochaines 24 heures)

TLE

FraisSource: CelesTrak SupGP

Époque: Sep 15, 2026, 02:20 UTC

1 64308C 25123T   26258.09770833 -.00048652  00000+0 -16931-2 0  2580
2 64308  69.9998  75.1973 0002902 272.4954  45.0564 15.29592958    11

Suivez STARLINK-34374 en temps réel avec AllMySat

Download on the App Store